Alghero, Italy

11:14 PM CET on February 08, 2016 (GMT +0100)
Fertilia

Weather History for LIEA - November, 2012

Change the Weather History Date:

Saturday, November 3, 2012

  Actual Average Record
Temperature  
Mean Temperature 60 °F -  
Max Temperature 68 °F 62 °F 75 °F (2004)
Min Temperature 51 °F 46 °F 42 °F (2006)
Degree Days  
Heating Degree Days 6    
Growing Degree Days 10 (Base 50)    
Moisture  
Dew Point 59 °F    
Average Humidity 83    
Maximum Humidity 100    
Minimum Humidity 73    
Precipitation  
Precipitation 0.00 in 0.13 in - ()
Sea Level Pressure  
Sea Level Pressure 29.96 in    
Wind  
Wind Speed 8 mph ()    
Max Wind Speed 18 mph    
Max Gust Speed 25 mph    
Visibility 6.2 miles    
Events Rain    
Averages and records for this station are not official NWS values.
T = Trace of Precipitation, MM = Missing Value Source: Averaged Metar Reports

Daily Weather History Graph

Daily Weather History Graph

Search for Another Location

Airport or City:

Trip Planner

Search our weather history database for the weather conditions in past years. The results will help you decide how hot, cold, wet, or windy it might be!

Date:

Astronomy

Nov. 03, 2012 Rise Set
Actual Time 6:59 AM CET 5:20 PM CET
Civil Twilight 6:31 AM CET 5:49 PM CET
Nautical Twilight 5:58 AM CET 6:21 PM CET
Astronomical Twilight 5:26 AM CET 6:53 PM CET
Moon 8:46 PM CET (11/3) 10:52 AM CET (11/3)
Length of Visible Light 11h 18m
Length of Day
10h 21m
Waning Gibbous, 82% of the Moon is Illuminated
Nov 3
Waning Gibbous
Nov 7
Last Quarter
Nov 13
New
Nov 20
First Quarter
Nov 28
Full

Hourly Weather History & Observations

Time (CET) Temp. Dew Point Humidity Pressure Visibility Wind Dir Wind Speed Gust Speed Precip Events Conditions
12:20 AM 51.8 °F 50.0 °F 94% 30.01 in - NE 5.8 mph - N/A   Clear
12:50 AM 51.8 °F 50.0 °F 94% 30.01 in - Variable 1.2 mph - N/A   Clear
1:20 AM 53.6 °F 51.8 °F 94% 30.01 in 6.2 mi Variable 1.2 mph - N/A   Partly Cloudy
1:50 AM 53.6 °F 51.8 °F 94% 30.01 in 6.2 mi NNE 4.6 mph - N/A   Partly Cloudy
2:20 AM 55.4 °F 55.4 °F 100% 30.01 in 6.2 mi NNE 4.6 mph - N/A   Partly Cloudy
2:50 AM 62.6 °F 60.8 °F 94% 30.01 in 6.2 mi SSE 4.6 mph - N/A   Scattered Clouds
3:20 AM 62.6 °F 60.8 °F 94% 30.01 in 6.2 mi SSW 11.5 mph - N/A   Scattered Clouds
3:50 AM 62.6 °F 59.0 °F 88% 29.98 in 6.2 mi SSW 10.4 mph - N/A   Scattered Clouds
4:20 AM 62.6 °F 60.8 °F 94% 29.98 in 6.2 mi SSW 11.5 mph - N/A   Scattered Clouds
4:50 AM 62.6 °F 59.0 °F 88% 29.98 in 6.2 mi South 10.4 mph - N/A   Partly Cloudy
5:20 AM 62.6 °F 59.0 °F 88% 29.98 in 6.2 mi South 10.4 mph - N/A   Partly Cloudy
5:50 AM 62.6 °F 59.0 °F 88% 29.98 in 6.2 mi South 9.2 mph - N/A   Partly Cloudy
6:20 AM 62.6 °F 59.0 °F 88% 29.98 in 6.2 mi South 9.2 mph - N/A   Partly Cloudy
6:50 AM 62.6 °F 59.0 °F 88% 29.98 in 6.2 mi South 6.9 mph - N/A   Scattered Clouds
7:20 AM 62.6 °F 59.0 °F 88% 29.98 in 6.2 mi South 8.1 mph - N/A   Scattered Clouds
7:50 AM 64.4 °F 59.0 °F 83% 29.98 in 6.2 mi South 10.4 mph - N/A   Scattered Clouds
8:20 AM 64.4 °F 59.0 °F 83% 29.98 in 6.2 mi South 11.5 mph - N/A   Scattered Clouds
8:50 AM 64.4 °F 59.0 °F 83% 30.01 in 6.2 mi South 11.5 mph - N/A   Scattered Clouds
9:20 AM 64.4 °F 59.0 °F 83% 30.01 in 6.2 mi South 10.4 mph - N/A   Scattered Clouds
9:50 AM 64.4 °F 59.0 °F 83% 30.01 in 6.2 mi South 13.8 mph - N/A   Partly Cloudy
10:20 AM 66.2 °F 59.0 °F 78% 30.01 in 6.2 mi South 11.5 mph - N/A   Partly Cloudy
10:50 AM 64.4 °F 59.0 °F 83% 30.01 in 6.2 mi South 12.7 mph - N/A   Scattered Clouds
11:20 AM 64.4 °F 60.8 °F 88% 30.01 in 6.2 mi South 10.4 mph - N/A Rain Light Rain
11:50 AM 64.4 °F 59.0 °F 83% 30.01 in 6.2 mi South 10.4 mph - N/A Rain Light Rain
12:20 PM 66.2 °F 60.8 °F 83% 29.98 in 6.2 mi South 10.4 mph - N/A   Scattered Clouds
12:50 PM 66.2 °F 60.8 °F 83% 29.98 in 6.2 mi South 13.8 mph - N/A   Scattered Clouds
1:20 PM 66.2 °F 59.0 °F 78% 29.95 in 6.2 mi South 13.8 mph 25.3 mph N/A   Scattered Clouds
1:50 PM 66.2 °F 59.0 °F 78% 29.95 in 6.2 mi South 13.8 mph - N/A   Scattered Clouds
2:20 PM 66.2 °F 59.0 °F 78% 29.95 in 6.2 mi South 12.7 mph - N/A   Scattered Clouds
2:50 PM 66.2 °F 59.0 °F 78% 29.95 in 6.2 mi South 13.8 mph - N/A   Scattered Clouds
3:20 PM 66.2 °F 59.0 °F 78% 29.95 in 6.2 mi South 12.7 mph - N/A   Light Drizzle
3:50 PM 68.0 °F 59.0 °F 73% 29.95 in 6.2 mi South 11.5 mph - N/A   Partly Cloudy
4:20 PM 68.0 °F 59.0 °F 73% 29.95 in 6.2 mi South 11.5 mph 23.0 mph N/A   Partly Cloudy
4:50 PM 66.2 °F 59.0 °F 78% 29.92 in 6.2 mi South 10.4 mph - N/A   Partly Cloudy
5:20 PM 66.2 °F 60.8 °F 83% 29.92 in - South 10.4 mph - N/A   Clear
5:50 PM 66.2 °F 60.8 °F 83% 29.92 in - South 5.8 mph - N/A   Clear
6:20 PM 66.2 °F 60.8 °F 83% 29.92 in - SSE 4.6 mph - N/A   Clear
6:50 PM 66.2 °F 60.8 °F 83% 29.92 in - South 6.9 mph - N/A   Clear
7:20 PM 66.2 °F 60.8 °F 83% 29.92 in - South 10.4 mph - N/A   Clear
7:50 PM 66.2 °F 60.8 °F 83% 29.92 in 6.2 mi South 11.5 mph - N/A   Scattered Clouds
8:20 PM 66.2 °F 60.8 °F 83% 29.92 in 6.2 mi South 12.7 mph - N/A   Scattered Clouds
8:50 PM 66.2 °F 59.0 °F 78% 29.92 in 6.2 mi SSW 10.4 mph - N/A   Mostly Cloudy
9:20 PM 66.2 °F 59.0 °F 78% 29.92 in 6.2 mi SSW 12.7 mph - N/A   Mostly Cloudy
9:50 PM 66.2 °F 59.0 °F 78% 29.92 in 6.2 mi SSW 13.8 mph - N/A   Mostly Cloudy
10:20 PM 68.0 °F 59.0 °F 73% 29.89 in 6.2 mi SSW 15.0 mph - N/A   Mostly Cloudy
10:50 PM 68.0 °F 59.0 °F 73% 29.89 in 6.2 mi SSW 15.0 mph - N/A   Scattered Clouds
11:20 PM 68.0 °F 59.0 °F 73% 29.89 in 6.2 mi SSW 17.3 mph - N/A   Scattered Clouds
11:50 PM 68.0 °F 59.0 °F 73% 29.89 in 6.2 mi South 18.4 mph - N/A   Scattered Clouds